Location: Baili�vre
(50.0696°N, 4.2409°E)
Time: 05:09:17
(UTC+00:00)

Cosmos 2219 Rocket - Pass Details

Date: 08 August 2020
Orbit: 826 x 848 km, 71.0° (Epoch: 23 September)

Event Time Altitude Azimuth Distance (km) Brightness Sun altitude
Rises 21:45:21 0° 333° (NNW) 3,413 7.0 -18.8°
Reaches altitude 10° 21:48:21 10° 348° (NNW) 2,478 5.7 -19.0°
Maximum altitude 21:52:47 23° 39° (NE) 1,745 4.0 -19.4°
Enters shadow 21:57:04 11° 90° (E) 2,437 4.3 -19.7°
